Location: Newark
(39.6105°N, 110.8138°W)
Time: 01:12:26
(UTC+00:00)

LightSail 2 - Visible Passes

Search period start: 09 April 2020 00:00
Search period end: 19 April 2020 00:00
Orbit: 694 x 724 km, 24.0° (Epoch: 08 April)

Date Brightness Start Highest point End Pass type
(mag) Time Alt. Az. Time Alt. Az. Time Alt. Az.
09 Apr 7.2 11:53:08 10° SSW 11:55:21 13° S 11:57:34 10° SSE visible
10 Apr 7.3 10:56:56 12° SSE 10:56:56 12° SSE 10:58:12 10° SSE visible
11 Apr 7.1 11:40:05 11° SSW 11:41:47 13° S 11:44:04 10° SSE visible
12 Apr 7.4 10:44:22 11° SSE 10:44:22 11° SSE 10:45:00 10° SSE visible
13 Apr 7.1 11:27:35 12° SSW 11:28:10 12° S 11:30:04 10° SSE visible
